Temp
9 8 8 8 8 8 9 9 9 12 12 12 12 12 12 14 15 14 12 11 11 12 14 17 17 18 19 20 20 21 19 19 21 21 22 20 19 20 21 20 21 22 22 21 20
8 8 9 8 8 8 8 9 10 12 12 12 12 12 13 14 14 15 12 13 13 13 14 16 19 19 19 20 19 19 18 20 21 19 18 18 18 18 19 19 19 20 22 21 20
8 8 9 9 9 10 9 11 12 12 12 13 13 13 13 13 15 15 13 13 14 14 15 16 17 19 19 20 19 19 19 19 19 17 17 17 17 18 17 17 19 18 18 18 18
9 9 10 10 10 10 11 11 12 12 12 13 13 13 15 14 16 14 13 14 14 15 17 17 18 19 19 19 19 17 19 18 18 17 16 16 17 16 16 17 18 18 18 18 17
9 9 10 10 10 10 11 11 12 12 13 13 13 13 14 16 14 13 13 13 14 16 16 17 17 17 19 18 18 18 18 18 18 17 16 16 15 15 16 17 18 19 18 17 17
9 9 10 10 10 10 11 11 12 13 13 13 14 14 15 16 13 13 13 13 13 14 15 15 15 15 17 17 16 16 16 16 17 17 17 16 15 15 16 19 19 18 17 17 17
9 9 10 10 10 11 11 12 12 13 13 13 14 14 16 14 14 13 13 13 13 13 15 14 15 16 15 16 15 16 15 17 16 17 16 15 14 16 16 18 18 17 17 17 18
9 9 10 10 10 11 12 13 13 13 13 14 14 14 15 14 13 13 13 14 13 13 13 14 14 15 15 15 15 16 17 16 17 17 15 15 13 16 17 17 17 17 16 17 18
9 9 10 10 10 11 12 13 13 13 14 14 14 15 15 14 14 13 13 12 13 14 14 14 15 15 15 15 16 17 14 15 15 17 16 15 13 15 16 17 17 17 17 17 17
9 9 10 10 10 11 13 13 14 14 14 14 14 15 15 14 13 13 13 12 14 15 15 16 16 16 13 12 12 12 12 13 13 16 15 13 13 15 16 16 16 17 18 17 15
9 9 10 10 11 11 13 13 13 13 13 12 13 14 14 13 13 14 12 13 15 16 15 15 14 12 12 12 13 12 12 12 14 16 12 13 13 14 15 16 17 17 16 15 16
10 9 10 10 11 12 12 13 9 8 13 12 13 14 12 12 14 14 13 15 17 15 16 14 12 12 13 13 13 13 12 11 13 13 12 12 13 14 15 16 17 16 15 15 15
10 10 10 10 11 11 10 8 8 8 13 13 12 13 12 12 13 12 12 13 14 15 14 13 12 13 13 13 12 12 12 11 10 11 12 12 12 16 17 16 17 16 15 15 14
10 10 10 10 11 11 10 8 9 9 12 13 13 12 13 13 13 12 11 11 14 14 13 13 12 12 13 13 12 10 12 11 10 10 8 12 7 13 17 17 17 15 14 14 14
9 10 10 10 10 11 9 9 9 9 15 13 13 12 12 13 12 12 11 12 13 13 12 12 12 12 13 12 12 10 11 10 10 10 9 12 8 11 15 15 15 13 13 12 12
9 9 10 9 9 9 9 9 9 11 15 10 12 13 13 13 13 13 13 12 11 12 13 11 10 11 11 11 11 11 10 11 12 10 6 12 11 11 14 14 13 13 12 11 11
9 9 9 9 9 9 9 9 11 13 10 11 11 13 13 12 13 12 13 11 10 11 12 12 11 10 10 11 11 10 8 6 7 8 8 13 11 11 14 13 13 12 11 10 9
8 8 9 9 9 9 9 9 12 10 10 9 11 12 12 10 11 12 13 12 10 10 10 10 10 11 10 10 9 9 8 4 5 6 8 11 8 12 15 15 14 11 10 9 8
8 7 7 7 8 9 9 10 12 10 8 9 9 9 8 10 11 12 11 11 10 9 9 9 12 9 10 10 9 9 7 9 4 4 5 8 12 14 14 14 11 10 9 7 6
7 5 5 6 8 9 6 11 9 10 10 10 11 8 10 7 10 11 11 11 9 9 9 9 7 10 8 9 9 8 9 5 5 3 4 8 10 11 12 12 9 8 8 6 5
6 6 4 6 8 6 7 9 7 9 10 11 9 7 9 7 9 9 9 9 10 8 9 9 7 9 9 8 8 5 5 4 6 6 3 4 7 14 12 11 8 7 7 5 3
5 6 3 5 5 4 7 7 9 8 8 9 10 9 8 7 7 9 10 10 10 8 6 7 6 5 11 9 9 8 7 6 2 5 6 5 6 12 12 11 8 7 6 4 2
5 3 3 4 6 5 5 7 8 8 8 9 8 10 7 6 8 7 9 8 9 8 5 6 4 3 8 7 8 7 8 8 2 2 3 1 6 14 12 9 7 6 5 3 2
4 4 2 2 3 6 6 7 7 9 8 9 8 8 7 5 6 5 8 7 7 8 7 7 5 3 7 9 7 7 8 7 2 0 1 4 5 9 8 5 6 5 3 3 1
5 5 4 4 3 5 7 7 7 6 7 8 7 8 8 5 5 5 8 5 6 7 6 6 2 2 3 4 4 5 5 6 4 3 2 7 2 6 5 5 2 4 2 2 1
5 4 3 4 5 5 6 6 7 6 5 6 7 8 8 6 9 6 6 6 5 5 5 6 3 4 1 4 5 4 5 5 5 5 5 5 5 8 8 5 4 3 2 1 0
4 4 7 5 5 6 6 7 7 7 6 8 7 8 7 8 6 7 7 7 6 4 4 4 3 1 3 5 4 3 6 6 3 3 2 2 5 4 5 3 3 2 1 1 -1
Height
817 814 812 809 808 806 803 801 798 796 794 791 789 786 784 783 782 782 781 786 781 776 771 768 769 768 768 766 767 765 778 777 767 763 761 761 766 759 758 762 759 754 753 754 755
817 815 812 808 807 806 803 802 798 796 794 791 789 786 784 784 783 783 788 783 779 775 773 770 767 768 768 767 770 774 780 771 765 769 773 769 770 769 769 766 762 757 750 752 755
817 815 811 809 807 805 803 801 798 795 793 791 789 787 785 785 784 787 785 782 779 775 774 773 771 767 768 767 771 770 776 772 769 774 775 774 770 768 770 768 761 762 758 754 755
817 815 811 809 807 805 803 800 797 795 793 791 789 787 785 785 790 789 785 781 779 777 774 773 771 769 770 774 773 781 770 773 773 775 778 776 771 771 767 761 757 757 756 757 757
817 814 811 809 807 805 802 799 796 794 792 791 789 786 786 786 792 790 786 783 780 779 777 774 773 774 773 775 776 777 776 775 773 774 774 772 774 773 763 754 753 752 754 754 753
816 814 811 809 807 804 801 798 795 793 792 791 789 787 786 789 792 790 786 785 782 781 781 778 780 779 779 780 782 783 781 778 773 775 775 776 772 773 757 750 750 752 752 751 749
816 813 811 809 806 803 800 797 794 792 792 790 789 787 786 794 792 790 787 786 785 784 783 783 781 778 782 783 785 783 784 772 775 774 778 777 774 764 755 751 751 751 750 748 747
815 813 810 808 805 802 799 796 793 792 792 790 789 789 790 792 792 790 789 787 787 786 785 784 783 782 783 785 784 782 778 783 773 773 777 779 780 758 752 752 751 747 745 745 745
815 813 810 807 804 801 798 795 793 792 791 791 791 790 792 792 793 792 791 789 787 786 785 784 782 782 783 784 784 782 795 789 785 771 773 777 773 757 753 751 746 743 742 743 744
815 812 810 806 803 800 797 794 792 792 791 791 791 793 793 795 794 792 791 790 788 785 784 783 783 784 796 794 806 804 803 795 794 776 778 779 766 756 750 747 742 739 740 742 745
814 812 809 806 803 800 796 794 794 795 793 797 798 794 795 796 793 792 791 790 786 782 786 784 793 804 805 803 803 803 803 797 783 777 785 775 766 751 744 742 737 738 740 741 741
812 811 809 806 803 800 798 798 802 804 797 798 798 797 797 797 793 793 792 789 783 788 784 791 802 803 801 799 800 800 801 796 782 782 787 775 760 743 735 734 733 740 743 742 740
811 810 808 806 803 802 801 803 802 802 797 798 798 797 798 798 797 799 797 793 793 790 792 793 802 800 799 797 800 800 799 802 803 790 775 775 762 740 731 733 734 736 736 737 739
810 809 808 806 806 803 804 803 802 802 801 798 798 799 797 797 797 801 800 800 793 796 797 798 802 802 800 796 804 810 794 800 802 801 809 781 812 754 733 733 733 735 737 738 738
810 808 808 806 807 805 807 803 803 805 803 800 800 801 797 797 802 801 802 798 799 798 800 804 801 803 798 801 803 808 798 801 798 797 802 776 805 761 739 740 738 740 740 741 741
807 808 807 807 807 806 804 804 804 811 799 807 800 798 796 795 798 797 799 802 803 799 799 805 810 809 807 805 801 800 796 787 785 794 828 774 781 766 746 742 741 741 741 741 740
805 806 807 807 807 804 804 806 812 805 808 804 801 801 796 800 796 798 799 807 811 807 800 799 804 809 811 806 803 802 811 832 829 816 812 769 781 761 741 740 741 741 742 742 740
804 805 805 807 805 804 805 812 810 803 806 807 803 802 798 808 805 799 798 802 812 813 813 815 815 806 812 811 815 811 823 859 861 837 812 782 797 754 732 734 736 743 743 742 739
798 806 806 806 805 805 809 815 797 802 807 806 809 809 816 810 806 800 803 804 812 817 823 823 797 812 813 812 815 816 830 817 852 843 832 793 758 739 735 735 741 746 744 743 739
796 804 804 807 805 807 820 805 802 798 802 801 799 814 808 820 807 803 804 807 816 817 819 824 835 805 818 817 816 820 819 841 844 869 856 792 766 759 745 741 748 747 744 742 737
793 800 806 804 808 813 819 807 806 801 801 799 805 817 809 817 812 812 811 815 810 819 818 820 835 813 814 819 817 835 836 839 832 833 854 839 789 735 739 745 749 746 743 740 736
791 798 806 803 818 822 811 806 802 804 806 804 802 801 807 814 817 807 805 807 810 817 829 827 833 841 800 807 810 816 817 824 857 840 826 829 796 740 736 739 745 746 744 741 739
791 801 807 803 805 814 809 803 802 803 806 805 805 801 810 817 811 812 806 816 814 818 830 830 842 852 817 815 813 817 808 809 838 845 841 860 793 726 734 745 750 749 746 743 736
785 797 808 807 804 797 803 802 802 799 801 801 803 806 812 819 815 822 812 821 820 819 825 826 834 842 823 802 812 812 807 809 837 860 844 807 787 750 753 760 753 751 751 743 738
777 775 784 796 799 796 792 795 795 802 803 803 805 801 802 822 819 822 811 824 824 823 827 830 850 841 831 821 821 814 812 811 820 821 829 773 804 767 763 761 764 752 749 743 738
762 768 782 783 778 789 788 793 790 797 803 802 800 794 800 809 796 811 808 816 820 826 828 827 843 829 835 814 812 810 801 801 800 801 800 792 782 757 754 758 756 754 753 747 742
753 755 753 771 780 781 777 778 777 785 793 785 789 794 799 796 802 802 802 803 810 820 829 829 839 847 835 812 811 817 779 782 792 793 797 803 769 761 757 760 757 759 757 751 746
Wind_Speed
15 17 16 16 16 15 15 16 15 13 12 12 13 14 9 4 10 17 14 13 15 19 16 8 1 2 4 2 4 3 3 5 11 7 4 9 8 7 7 7 10 10 4 5 14
15 17 17 16 16 16 15 16 14 12 11 12 14 13 9 2 5 17 17 17 16 14 13 11 5 5 3 2 3 3 3 5 5 8 7 10 8 9 8 11 10 12 11 14 17
14 17 17 16 15 15 16 16 16 13 11 10 12 11 6 3 4 9 24 18 16 15 5 5 4 5 3 1 3 2 3 7 9 7 8 10 11 8 8 7 7 8 10 11 12
15 17 17 17 15 15 16 17 15 13 11 9 10 8 4 1 2 13 20 17 16 15 5 1 3 2 3 3 2 3 2 4 5 6 4 7 10 8 11 11 9 9 8 5 8
15 17 18 17 16 15 17 19 16 11 9 8 9 6 3 4 4 14 14 16 10 12 17 5 7 5 2 3 3 4 6 4 2 4 6 8 8 11 17 18 10 5 4 8 8
14 16 18 18 16 16 17 19 13 10 8 7 7 4 4 3 5 13 10 11 13 12 14 14 5 6 5 4 5 5 7 8 4 5 6 9 13 7 8 2 1 7 9 9 10
14 16 19 18 17 17 17 17 12 8 7 6 6 5 7 3 5 13 10 7 10 9 7 9 8 3 3 2 3 4 5 7 7 5 2 6 10 8 11 7 7 8 9 9 6
15 17 18 19 17 17 18 14 9 5 6 7 4 3 3 1 2 14 12 1 6 4 3 3 2 1 2 2 4 5 3 5 5 3 5 3 7 18 11 11 15 10 8 7 4
16 17 17 18 18 18 19 13 6 9 8 6 4 3 3 2 4 11 11 5 7 3 3 2 3 3 2 3 2 2 4 8 9 5 1 3 13 16 14 17 14 8 7 5 2
16 17 17 18 18 19 18 8 5 6 5 3 4 2 3 4 7 12 9 6 3 4 3 2 2 1 5 6 2 4 4 5 12 6 7 13 23 20 15 18 11 5 2 2 6
14 16 17 17 18 17 16 4 1 2 8 4 3 3 3 9 2 12 10 7 4 2 3 2 5 5 5 6 2 4 8 10 14 10 12 10 19 23 16 13 6 5 6 8 6
13 15 16 16 17 12 7 3 3 1 1 1 0 2 1 4 2 11 19 2 2 3 1 0 4 3 2 2 4 7 9 9 9 13 16 11 21 23 15 7 3 5 7 8 6
12 13 15 14 12 5 7 4 1 2 3 3 1 2 2 5 3 7 10 5 4 4 5 4 4 1 2 3 5 6 6 8 10 17 12 8 8 8 6 6 3 7 5 5 7
12 11 12 13 3 5 2 4 2 3 2 3 3 1 1 1 2 4 6 2 1 3 4 4 3 1 3 1 4 4 6 9 13 9 3 8 5 6 3 6 3 6 8 7 8
12 9 8 7 5 2 3 3 2 2 3 2 1 1 2 2 2 2 2 4 3 2 2 2 1 2 3 3 3 7 11 12 14 6 6 2 0 6 10 7 7 9 8 10 13
12 9 6 2 2 1 3 3 2 4 5 1 2 2 3 2 2 2 2 3 2 1 1 4 1 2 5 6 3 9 9 9 1 2 1 2 2 6 4 5 7 7 9 14 17
13 8 4 1 1 2 3 2 4 3 2 1 1 3 2 2 3 3 3 4 3 3 3 3 3 3 2 4 3 7 6 4 5 2 4 6 5 9 10 5 4 8 10 14 19
15 8 4 2 2 1 3 3 2 2 5 0 2 1 1 3 2 1 1 3 5 4 2 2 4 3 1 3 2 5 2 4 4 3 6 9 6 5 4 4 4 12 14 18 20
18 6 2 2 2 3 4 1 5 5 3 7 3 2 2 1 1 1 2 2 3 4 2 3 2 4 2 2 1 1 1 1 0 4 2 4 6 8 5 4 9 13 15 20 20
17 7 3 1 5 4 4 5 3 1 3 2 4 2 4 3 3 4 4 1 4 2 1 1 4 2 3 2 2 2 1 1 0 4 6 6 6 5 8 8 9 17 18 20 20
12 4 0 10 5 4 3 6 3 0 2 2 4 3 2 4 3 3 4 1 3 4 1 4 1 1 2 6 5 1 1 2 2 2 4 4 6 3 6 8 15 18 19 21 21
6 2 4 14 3 2 3 5 1 2 1 2 2 2 5 6 4 3 3 1 5 6 4 3 1 4 3 5 4 4 3 5 4 4 3 2 8 8 6 16 18 18 18 18 18
5 2 1 5 5 4 2 2 1 4 3 3 3 1 2 5 1 2 3 3 4 5 5 5 2 4 2 3 1 4 5 4 5 3 6 3 7 1 16 16 17 16 17 17 18
4 3 1 1 1 4 4 4 4 3 0 3 2 3 3 1 3 4 5 3 3 1 5 1 1 6 6 3 3 5 6 9 7 3 4 11 12 25 18 16 17 15 15 18 16
3 4 5 6 5 5 9 8 8 6 2 5 4 7 5 4 3 4 4 4 3 6 4 3 4 5 6 16 9 14 15 12 11 12 7 13 8 25 21 17 7 13 17 20 18
5 4 1 3 7 13 11 9 10 5 9 6 6 6 8 5 4 8 7 6 5 7 6 4 3 3 6 7 8 13 13 15 17 16 15 21 27 25 15 6 10 12 16 18 18
5 2 5 10 6 10 8 10 15 12 8 3 7 4 8 5 6 5 3 6 7 8 7 6 2 2 6 5 8 7 7 13 5 5 7 7 12 4 9 8 5 10 14 15 16
Wind_Direction
350 350 352 352 347 347 349 345 348 352 357 2 4 358 337 315 7 30 33 336 331 337 350 312 272 149 194 229 337 303 270 260 270 319 9 43 13 342 353 305 293 266 243 62 27
348 348 349 350 345 344 344 340 343 344 342 351 359 0 1 354 329 43 354 351 353 1 353 348 84 193 148 168 181 254 217 307 25 17 350 344 352 318 300 292 284 300 310 9 12
344 345 348 347 344 342 340 341 340 337 333 339 347 354 9 360 258 12 346 356 9 11 350 338 321 297 110 241 129 260 245 11 37 25 356 323 308 337 306 268 267 323 326 340 352
339 344 347 346 343 339 337 338 337 336 335 335 344 350 2 311 34 348 343 3 10 11 357 234 251 236 169 177 81 279 61 6 328 24 312 309 315 299 271 268 299 308 285 341 294
336 343 346 344 341 338 338 337 334 336 338 338 345 358 318 92 24 340 350 11 13 22 23 6 44 329 84 56 241 248 19 322 313 324 305 316 293 284 292 288 283 317 327 267 292
333 341 344 343 339 336 337 337 336 334 329 333 345 350 272 75 333 346 350 14 25 17 39 37 31 321 56 31 351 351 317 294 338 313 311 296 298 317 282 324 100 273 274 282 283
331 336 339 339 336 334 335 337 334 332 333 329 338 345 51 100 1 0 5 5 12 18 30 32 344 54 304 149 8 283 296 241 205 234 280 355 282 207 248 294 315 280 267 277 285
326 329 334 336 334 333 334 332 345 345 341 343 343 326 60 300 357 4 359 29 2 10 5 358 331 153 64 178 222 241 162 3 163 82 146 23 280 294 335 322 303 278 275 276 310
322 327 331 335 332 333 331 322 297 340 298 340 340 313 85 4 0 348 349 340 318 287 318 304 290 337 122 270 193 51 321 336 338 318 246 203 286 267 302 293 287 271 260 264 327
317 325 330 334 332 334 334 317 300 341 339 314 277 227 61 351 333 336 350 331 310 271 220 231 251 76 34 13 80 318 320 322 302 289 338 314 279 288 289 282 280 294 330 275 247
313 321 328 332 332 336 343 339 219 161 42 41 24 318 44 333 328 19 350 307 227 244 36 41 70 52 21 30 1 274 277 282 292 329 348 286 290 286 286 285 277 243 201 225 245
309 318 325 330 334 345 4 21 49 27 255 90 101 139 26 336 304 31 357 308 311 64 323 11 90 61 299 217 285 314 309 299 309 352 313 296 293 291 277 250 62 5 328 329 334
301 313 322 329 338 14 49 57 49 359 256 116 55 13 356 329 53 355 1 313 355 49 345 63 103 222 257 302 0 309 296 344 309 327 286 324 288 351 6 93 197 235 218 245 254
289 306 320 331 351 354 52 343 351 16 42 236 174 124 171 323 107 7 13 355 119 35 348 62 136 300 280 353 46 299 40 332 308 332 305 9 290 299 34 223 170 29 6 350 349
278 295 314 347 325 340 312 341 354 310 339 56 74 326 223 44 338 97 320 265 28 27 274 124 72 343 284 55 14 250 315 292 272 267 305 328 59 264 301 12 356 10 2 355 348
262 279 306 344 346 342 347 349 23 38 254 84 324 231 193 75 100 271 197 151 339 235 287 86 51 301 341 301 239 280 296 299 71 227 352 200 86 279 287 346 345 352 346 344 327
244 254 264 266 187 351 357 265 36 175 1 251 112 307 346 68 115 40 58 20 17 31 21 170 152 108 307 305 163 15 360 343 354 330 232 157 288 247 290 34 351 307 348 340 330
238 228 216 213 167 67 37 43 171 233 229 108 132 145 342 340 71 69 201 159 70 353 317 33 318 174 150 43 345 53 70 126 257 298 287 285 231 255 338 107 319 9 339 338 327
202 187 148 149 116 82 82 50 220 207 174 153 76 104 327 272 340 168 51 54 69 38 72 347 229 115 16 26 319 129 111 49 241 236 313 243 278 290 126 343 20 345 338 335 328
163 142 128 106 118 69 74 250 235 173 149 146 173 148 172 211 205 192 160 76 123 76 357 13 305 97 134 212 94 48 348 122 49 330 300 283 291 250 340 321 353 341 336 336 331
136 133 75 136 98 56 195 237 258 108 291 207 189 152 188 186 221 197 159 163 139 130 12 104 225 193 121 201 157 134 180 279 116 194 223 305 267 308 300 353 352 342 344 337 331
128 162 160 139 91 242 193 206 311 154 226 262 277 126 179 169 172 192 191 130 155 137 140 56 187 265 214 106 69 312 220 172 136 261 243 214 266 269 279 356 354 341 337 335 329
126 98 12 103 165 206 232 188 265 155 211 200 232 163 101 189 147 134 117 32 124 145 161 181 224 319 328 24 112 231 196 214 99 90 221 158 261 216 336 340 337 339 338 332 336
126 140 97 348 340 163 155 199 203 185 178 197 141 115 124 102 27 180 155 175 140 98 94 117 242 204 205 191 93 230 201 196 144 163 236 230 277 293 308 321 326 334 333 340 340
186 180 183 177 197 199 172 171 183 179 247 196 216 210 169 150 141 210 147 116 169 154 181 229 224 214 237 265 266 261 251 238 212 205 193 270 292 290 298 310 300 331 344 342 341
157 153 79 174 135 179 189 197 186 140 172 222 215 159 210 190 201 193 139 171 185 167 181 193 262 10 294 242 237 259 248 233 235 240 252 262 278 280 286 298 337 352 344 341 341
155 149 140 160 163 175 185 190 201 143 231 168 186 147 206 206 83 59 58 117 141 150 186 157 217 67 269 341 311 302 231 199 200 187 177 202 235 296 322 323 351 352 344 340 344